Mosby, MO

7:24 AM CST on December 06, 2019 (GMT -0600)
Clay County Regional

Weather History for KGPH - October, 2019

Change the Weather History Date:

Thursday, October 24, 2019

  Actual Average (WUND) Record (WUND)
Temperature  
Mean Temperature 44 °F -  
Max Temperature 50 °F - - (-1)
Min Temperature 39 °F - - (-1)
Degree Days  
Heating Degree Days 20    
Moisture  
Dew Point 35 °F    
Average Humidity 74    
Maximum Humidity 87    
Minimum Humidity 66    
Precipitation  
Precipitation 0.00 in - - ()
Sea Level Pressure  
Sea Level Pressure 30.33 in    
Wind  
Wind Speed 6 mph ()    
Max Wind Speed 14 mph    
Max Gust Speed 21 mph    
Visibility 10.0 miles    
Events      
Averages and records for this station are not official NWS values.
T = Trace of Precipitation, MM = Missing Value Source: Averaged Metar Reports

Daily Weather History Graph

Daily Weather History Graph

Search for Another Location

Airport or City:

Astronomy

Oct. 24, 2019 Rise Set
Actual Time 7:36 AM CDT 6:26 PM CDT
Civil Twilight 7:08 AM CDT 6:53 PM CDT
Nautical Twilight 6:37 AM CDT 7:24 PM CDT
Astronomical Twilight 6:06 AM CDT 7:55 PM CDT
Moon 3:09 AM CDT (10/24) 4:52 PM CDT (10/24)
Length of Visible Light 11h 44m
Length of Day
10h 49m
Waning Crescent, 16% of the Moon is Illuminated
Oct 24
Waning Crescent
Oct 27
New
Nov 4
First Quarter
Nov 12
Full
Nov 19
Last Quarter

Hourly Weather History & Observations

Time (CDT) Temp. Windchill Dew Point Humidity Pressure Visibility Wind Dir Wind Speed Gust Speed Precip Events Conditions
12:15 AM 50.0 °F - 41.0 °F 71% 30.16 in 10.0 mi North 10.4 mph - N/A   Clear
12:35 AM 50.0 °F - 41.0 °F 71% 30.16 in 10.0 mi North 5.8 mph - N/A   Clear
12:55 AM 50.0 °F - 41.0 °F 71% 30.18 in 10.0 mi North 11.5 mph - N/A   Clear
1:15 AM 46.4 °F 44.3 °F 39.2 °F 76% 30.20 in 10.0 mi NNE 4.6 mph 17.3 mph N/A   Scattered Clouds
1:35 AM 46.4 °F 40.7 °F 39.2 °F 76% 30.20 in 10.0 mi North 12.7 mph - N/A   Scattered Clouds
2:15 AM 44.6 °F 39.7 °F 37.4 °F 76% 30.21 in 10.0 mi North 9.2 mph - N/A   Clear
2:35 AM 44.6 °F 38.4 °F 37.4 °F 76% 30.21 in 10.0 mi North 12.7 mph - N/A   Clear
2:55 AM 44.6 °F 38.4 °F 37.4 °F 76% 30.22 in 10.0 mi North 12.7 mph - N/A   Clear
3:15 AM 42.8 °F 38.6 °F 37.4 °F 81% 30.23 in 10.0 mi North 6.9 mph - N/A   Clear
3:35 AM 42.8 °F 36.6 °F 37.4 °F 81% 30.24 in 10.0 mi North 11.5 mph - N/A   Mostly Cloudy
3:55 AM 42.8 °F 36.2 °F 37.4 °F 81% 30.24 in 10.0 mi North 12.7 mph 17.3 mph N/A   Mostly Cloudy
4:15 AM 42.8 °F 35.8 °F 35.6 °F 76% 30.23 in 10.0 mi North 13.8 mph 20.7 mph N/A   Scattered Clouds
4:35 AM 42.8 °F 37.5 °F 35.6 °F 76% 30.24 in 10.0 mi North 9.2 mph 19.6 mph N/A   Clear
4:55 AM 42.8 °F 36.6 °F 35.6 °F 76% 30.25 in 10.0 mi North 11.5 mph - N/A   Clear
5:15 AM 42.8 °F 38.0 °F 33.8 °F 70% 30.27 in 10.0 mi North 8.1 mph - N/A   Clear
5:35 AM 41.0 °F - 33.8 °F 76% 30.28 in 10.0 mi Calm Calm - N/A   Clear
5:55 AM 41.0 °F - 33.8 °F 76% 30.31 in 10.0 mi Calm Calm - N/A   Clear
6:15 AM 41.0 °F - 33.8 °F 76% 30.32 in 10.0 mi Calm Calm - N/A   Clear
6:35 AM 41.0 °F - 33.8 °F 76% 30.32 in 10.0 mi Calm Calm - N/A   Clear
6:55 AM 39.2 °F - 33.8 °F 81% 30.32 in 10.0 mi Calm Calm - N/A   Clear
7:15 AM 39.2 °F - 33.8 °F 81% 30.32 in 10.0 mi Calm Calm - N/A   Clear
7:55 AM 39.2 °F - 33.8 °F 81% 30.33 in 10.0 mi Calm Calm - N/A   Clear
8:15 AM 39.2 °F - 35.6 °F 87% 30.35 in 10.0 mi Calm Calm - N/A   Clear
8:35 AM 39.2 °F - 35.6 °F 87% 30.35 in 10.0 mi Calm Calm - N/A   Clear
8:55 AM 39.2 °F - 35.6 °F 87% 30.35 in 10.0 mi Calm Calm - N/A   Clear
9:15 AM 41.0 °F - 35.6 °F 81% 30.36 in 10.0 mi Calm Calm - N/A   Scattered Clouds
9:35 AM 41.0 °F - 35.6 °F 81% 30.37 in 10.0 mi Calm Calm - N/A   Clear
9:55 AM 41.0 °F 38.0 °F 35.6 °F 81% 30.37 in 10.0 mi NNE 4.6 mph - N/A   Clear
10:15 AM 41.0 °F - 35.6 °F 81% 30.39 in 10.0 mi Calm Calm - N/A   Clear
10:35 AM 42.8 °F - 33.8 °F 70% 30.40 in 10.0 mi Calm Calm - N/A   Mostly Cloudy
10:55 AM 42.8 °F 38.0 °F 33.8 °F 70% 30.41 in 10.0 mi North 8.1 mph - N/A   Overcast
11:15 AM 42.8 °F 38.6 °F 33.8 °F 70% 30.40 in 10.0 mi North 6.9 mph 16.1 mph N/A   Overcast
11:35 AM 42.8 °F 37.5 °F 33.8 °F 70% 30.40 in 10.0 mi NNE 9.2 mph - N/A   Overcast
11:55 AM 42.8 °F 37.0 °F 33.8 °F 70% 30.39 in 10.0 mi NNE 10.4 mph - N/A   Overcast
12:35 PM 42.8 °F 38.0 °F 33.8 °F 70% 30.40 in 10.0 mi NNE 8.1 mph - N/A   Overcast
12:55 PM 42.8 °F 37.0 °F 33.8 °F 70% 30.40 in 10.0 mi North 10.4 mph - N/A   Overcast
1:15 PM 44.6 °F 39.2 °F 33.8 °F 66% 30.40 in 10.0 mi North 10.4 mph - N/A   Overcast
1:35 PM 44.6 °F 40.2 °F 33.8 °F 66% 30.40 in 10.0 mi NNE 8.1 mph - N/A   Overcast
1:55 PM 44.6 °F 40.7 °F 33.8 °F 66% 30.39 in 10.0 mi North 6.9 mph - N/A   Overcast
2:35 PM 44.6 °F 39.7 °F 33.8 °F 66% 30.36 in 10.0 mi NNE 9.2 mph - N/A   Overcast
2:55 PM 42.8 °F 37.5 °F 33.8 °F 70% 30.36 in 10.0 mi NNE 9.2 mph - N/A   Overcast
3:15 PM 44.6 °F 39.7 °F 33.8 °F 66% 30.36 in 10.0 mi NNE 9.2 mph - N/A   Overcast
3:35 PM 44.6 °F 40.2 °F 33.8 °F 66% 30.35 in 10.0 mi North 8.1 mph - N/A   Overcast
3:55 PM 44.6 °F 40.2 °F 33.8 °F 66% 30.33 in 10.0 mi North 8.1 mph - N/A   Overcast
4:15 PM 44.6 °F 38.8 °F 33.8 °F 66% 30.33 in 10.0 mi North 11.5 mph - N/A   Overcast
4:35 PM 44.6 °F 39.7 °F 33.8 °F 66% 30.32 in 10.0 mi North 9.2 mph - N/A   Overcast
5:15 PM 44.6 °F 41.4 °F 33.8 °F 66% 30.35 in 10.0 mi NNE 5.8 mph - N/A   Overcast
5:35 PM 44.6 °F 41.4 °F 33.8 °F 66% 30.35 in 10.0 mi NNE 5.8 mph - N/A   Overcast
5:55 PM 44.6 °F 41.4 °F 33.8 °F 66% 30.35 in 10.0 mi North 5.8 mph - N/A   Overcast
6:15 PM 44.6 °F 41.4 °F 33.8 °F 66% 30.34 in 10.0 mi NNE 5.8 mph - N/A   Overcast
6:35 PM 44.6 °F 41.4 °F 33.8 °F 66% 30.35 in 10.0 mi NNE 5.8 mph - N/A   Overcast
6:55 PM 44.6 °F 42.2 °F 33.8 °F 66% 30.36 in 10.0 mi North 4.6 mph - N/A   Overcast
7:35 PM 42.8 °F 39.3 °F 33.8 °F 70% 30.37 in 10.0 mi North 5.8 mph - N/A   Overcast
7:55 PM 42.8 °F 41.1 °F 33.8 °F 70% 30.39 in 10.0 mi North 3.5 mph - N/A   Overcast
8:15 PM 42.8 °F - 33.8 °F 70% 30.39 in 10.0 mi Calm Calm - N/A   Overcast
8:55 PM 42.8 °F - 33.8 °F 70% 30.40 in 10.0 mi Calm Calm - N/A   Overcast
9:15 PM 42.8 °F - 33.8 °F 70% 30.39 in 10.0 mi Calm Calm - N/A   Overcast
9:55 PM 41.0 °F - 33.8 °F 76% 30.39 in 10.0 mi Calm Calm - N/A   Clear
10:15 PM 41.0 °F - 33.8 °F 76% 30.39 in 10.0 mi Calm Calm - N/A   Clear
10:35 PM 41.0 °F - 33.8 °F 76% 30.39 in 10.0 mi Calm Calm - N/A   Clear
10:55 PM 41.0 °F - 33.8 °F 76% 30.39 in 10.0 mi Calm Calm - N/A   Scattered Clouds
11:15 PM 39.2 °F - 35.6 °F 87% 30.38 in 10.0 mi Calm Calm - N/A   Mostly Cloudy
11:35 PM 39.2 °F - 35.6 °F 87% 30.37 in 10.0 mi Calm Calm - N/A   Mostly Cloudy
11:55 PM 39.2 °F - 35.6 °F 87% 30.39 in 10.0 mi Calm Calm - N/A   Mostly Cloudy